Hourly Weather Alibaevo

Today, 10 May, Monday

Time Temperature Precipitation Wind Pressure Humidity
00:00 +14°C° 0 mm 2 mps 736 mmHg 62%
01:00 +13°C° 0 mm 2 mps 736 mmHg 63%
02:00 +13°C° 0 mm 2 mps 737 mmHg 63%
03:00 +12°C° 0 mm 2 mps 737 mmHg 62%
04:00 +12°C° 0 mm 2 mps 737 mmHg 62%
05:00 +13°C° 0 mm 2 mps 738 mmHg 60%
06:00 +14°C° 0 mm 2 mps 738 mmHg 58%
07:00 +16°C° 0 mm 2 mps 738 mmHg 56%
08:00 +17°C° 0 mm 2 mps 738 mmHg 52%
09:00 +19°C° 0 mm 3 mps 739 mmHg 48%
10:00 +20°C° 0 mm 3 mps 739 mmHg 44%
11:00 +21°C° 0 mm 3 mps 739 mmHg 41%
12:00 +22°C° 0 mm 3 mps 739 mmHg 37%
13:00 +24°C° 0 mm 3 mps 739 mmHg 34%
14:00 +23°C° 0 mm 4 mps 739 mmHg 36%
15:00 +23°C° 0 mm 4 mps 739 mmHg 38%
16:00 +22°C° 0 mm 5 mps 739 mmHg 40%
17:00 +21°C° 0 mm 4 mps 739 mmHg 45%
18:00 +20°C° 0 mm 3 mps 739 mmHg 50%
19:00 +18°C° 0 mm 3 mps 739 mmHg 55%
20:00 +17°C° 0 mm 3 mps 739 mmHg 56%
21:00 +16°C° 0 mm 3 mps 739 mmHg 56%
22:00 +13°C° 0 mm 3 mps 740 mmHg 57%
23:00 +13°C° 0 mm 3 mps 740 mmHg 63%

Tomorrow, 11 May, Tuesday

Time Temperature Precipitation Wind Pressure Humidity
00:00 +13°C° 0 mm 2 mps 740 mmHg 70%
01:00 +12°C° 0 mm 2 mps 740 mmHg 77%
02:00 +12°C° 0 mm 2 mps 741 mmHg 78%
03:00 +10°C° 0 mm 2 mps 741 mmHg 80%
04:00 +10°C° 0 mm 2 mps 741 mmHg 82%
05:00 +11°C° 0 mm 3 mps 742 mmHg 77%
06:00 +13°C° 0 mm 3 mps 742 mmHg 72%
07:00 +14°C° 0 mm 3 mps 743 mmHg 68%
08:00 +15°C° 0 mm 4 mps 743 mmHg 62%
09:00 +18°C° 0 mm 4 mps 743 mmHg 56%
10:00 +19°C° 0 mm 4 mps 744 mmHg 51%
11:00 +20°C° 0 mm 4 mps 744 mmHg 48%
12:00 +20°C° 0 mm 4 mps 744 mmHg 45%
13:00 +21°C° 0 mm 4 mps 744 mmHg 42%
14:00 +21°C° 0 mm 4 mps 744 mmHg 39%
15:00 +21°C° 0 mm 4 mps 744 mmHg 37%
16:00 +21°C° 0 mm 4 mps 744 mmHg 35%
17:00 +20°C° 0 mm 3 mps 744 mmHg 41%
18:00 +19°C° 0 mm 3 mps 744 mmHg 47%
19:00 +17°C° 0 mm 2 mps 744 mmHg 53%
20:00 +16°C° 0 mm 2 mps 744 mmHg 51%
21:00 +15°C° 0 mm 2 mps 744 mmHg 49%
22:00 +14°C° 0 mm 2 mps 744 mmHg 47%
23:00 +13°C° 0 mm 2 mps 744 mmHg 47%

Day after tomorrow, 12 May, Wednesday

Time Temperature Precipitation Wind Pressure Humidity
00:00 +13°C° 0 mm 2 mps 744 mmHg 47%
01:00 +12°C° 0 mm 2 mps 745 mmHg 47%
02:00 +12°C° 0 mm 2 mps 745 mmHg 49%
03:00 +10°C° 0 mm 2 mps 745 mmHg 52%
04:00 +10°C° 0 mm 2 mps 745 mmHg 54%
05:00 +12°C° 0 mm 2 mps 745 mmHg 55%
06:00 +13°C° 0 mm 2 mps 746 mmHg 55%
07:00 +15°C° 0 mm 2 mps 746 mmHg 55%
08:00 +16°C° 0 mm 3 mps 746 mmHg 51%
09:00 +17°C° 0 mm 3 mps 746 mmHg 47%
10:00 +19°C° 0 mm 4 mps 746 mmHg 43%
11:00 +19°C° 0 mm 4 mps 746 mmHg 41%
12:00 +20°C° 0 mm 4 mps 746 mmHg 38%
13:00 +21°C° 0 mm 4 mps 746 mmHg 36%
14:00 +21°C° 0 mm 4 mps 746 mmHg 36%
15:00 +21°C° 0 mm 3 mps 746 mmHg 36%
16:00 +22°C° 0 mm 3 mps 745 mmHg 36%
17:00 +20°C° 0 mm 3 mps 745 mmHg 42%
18:00 +19°C° 0 mm 2 mps 745 mmHg 48%
19:00 +19°C° 0 mm 1 mps 745 mmHg 54%
20:00 +18°C° 0 mm 1 mps 745 mmHg 53%
21:00 +16°C° 0 mm 1 mps 745 mmHg 52%
22:00 +14°C° 0 mm 2 mps 745 mmHg 52%
23:00 +14°C° 0 mm 2 mps 745 mmHg 52%

13 May, Thursday

Time Temperature Precipitation Wind Pressure Humidity
00:00 +14°C° 0 mm 2 mps 745 mmHg 52%
01:00 +13°C° 0 mm 1 mps 745 mmHg 52%
02:00 +13°C° 0 mm 1 mps 745 mmHg 53%
03:00 +12°C° 0 mm 1 mps 745 mmHg 54%
04:00 +12°C° 0 mm 1 mps 745 mmHg 54%
05:00 +13°C° 0 mm 1 mps 745 mmHg 54%
06:00 +15°C° 0 mm 1 mps 745 mmHg 53%
07:00 +18°C° 0 mm 1 mps 746 mmHg 52%
08:00 +19°C° 0 mm 1 mps 746 mmHg 48%
09:00 +21°C° 0 mm 1 mps 746 mmHg 43%
10:00 +23°C° 0 mm 2 mps 746 mmHg 39%
11:00 +23°C° 0 mm 2 mps 746 mmHg 37%
12:00 +24°C° 0 mm 1 mps 746 mmHg 35%
13:00 +25°C° 0 mm 1 mps 745 mmHg 32%
14:00 +25°C° 0 mm 1 mps 745 mmHg 32%
15:00 +25°C° 0 mm 1 mps 745 mmHg 32%
16:00 +25°C° 0 mm 1 mps 745 mmHg 31%
17:00 +22°C° 0 mm 0 mps 745 mmHg 36%
18:00 +21°C° 0 mm 0 mps 744 mmHg 42%
19:00 +20°C° 0 mm 0 mps 744 mmHg 47%
20:00 +18°C° 0 mm 0 mps 744 mmHg 48%
21:00 +19°C° 0 mm 1 mps 744 mmHg 49%
22:00 +16°C° 0 mm 1 mps 744 mmHg 49%
23:00 +16°C° 0 mm 1 mps 744 mmHg 51%

14 May, Friday

Time Temperature Precipitation Wind Pressure Humidity
00:00 +15°C° 0 mm 1 mps 744 mmHg 52%
01:00 +15°C° 0 mm 1 mps 744 mmHg 54%
02:00 +14°C° 0 mm 1 mps 744 mmHg 55%
03:00 +14°C° 0 mm 1 mps 745 mmHg 55%
04:00 +14°C° 0 mm 1 mps 745 mmHg 56%
05:00 +15°C° 0 mm 1 mps 745 mmHg 55%
06:00 +18°C° 0 mm 1 mps 745 mmHg 53%
07:00 +18°C° 0 mm 0 mps 745 mmHg 52%
08:00 +21°C° 0 mm 1 mps 745 mmHg 47%
09:00 +23°C° 0 mm 1 mps 745 mmHg 42%
10:00 +25°C° 0 mm 1 mps 745 mmHg 38%
11:00 +26°C° 0 mm 1 mps 745 mmHg 35%
12:00 +26°C° 0 mm 1 mps 745 mmHg 33%
13:00 +27°C° 0 mm 1 mps 745 mmHg 31%
14:00 +27°C° 0 mm 1 mps 745 mmHg 31%
15:00 +27°C° 0 mm 1 mps 745 mmHg 31%
16:00 +27°C° 0 mm 1 mps 745 mmHg 31%
17:00 +26°C° 0 mm 1 mps 744 mmHg 37%
18:00 +24°C° 0 mm 1 mps 744 mmHg 42%
19:00 +23°C° 0 mm 1 mps 744 mmHg 48%
20:00 +21°C° 0 mm 1 mps 744 mmHg 48%
21:00 +20°C° 0 mm 1 mps 744 mmHg 48%
22:00 +19°C° 0 mm 1 mps 743 mmHg 48%
23:00 +18°C° 0 mm 1 mps 743 mmHg 49%

15 May, Saturday

Time Temperature Precipitation Wind Pressure Humidity
00:00 +18°C° 0 mm 1 mps 743 mmHg 50%
01:00 +16°C° 0 mm 1 mps 743 mmHg 50%
02:00 +16°C° 0 mm 1 mps 743 mmHg 51%
03:00 +16°C° 0 mm 1 mps 743 mmHg 52%
04:00 +15°C° 0 mm 1 mps 743 mmHg 53%
05:00 +18°C° 0 mm 1 mps 743 mmHg 52%
06:00 +19°C° 0 mm 1 mps 743 mmHg 52%
07:00 +21°C° 0 mm 1 mps 743 mmHg 52%
08:00 +23°C° 0 mm 1 mps 743 mmHg 48%
09:00 +22°C° 0 mm 0 mps 743 mmHg 43%
10:00 +24°C° 0 mm 0 mps 743 mmHg 39%
11:00 +27°C° 0 mm 1 mps 743 mmHg 37%
12:00 +27°C° 0 mm 1 mps 743 mmHg 36%
13:00 +28°C° 0 mm 2 mps 743 mmHg 34%
14:00 +28°C° 0 mm 2 mps 742 mmHg 34%
15:00 +28°C° 0 mm 2 mps 742 mmHg 35%
16:00 +28°C° 0 mm 2 mps 742 mmHg 35%
17:00 +27°C° 0 mm 2 mps 742 mmHg 41%
18:00 +25°C° 0 mm 1 mps 742 mmHg 46%
19:00 +24°C° 0 mm 1 mps 741 mmHg 52%
20:00 +23°C° 0 mm 1 mps 741 mmHg 53%
21:00 +21°C° 0 mm 1 mps 741 mmHg 55%
22:00 +20°C° 0 mm 1 mps 741 mmHg 56%
23:00 +19°C° 0 mm 1 mps 741 mmHg 57%
Show more